WXM80 ListenWXM80 Stop

You find our weather info also at:

UK Metoffice

WeatherCloud

Weather Underground

Northeastern Weather Network

AWEKAS

Citizen Weather Observer Program (CWOP)

HAMweather, WeatherForYou, PWS Weather


Weather Underground History page Text

Daily Summary for June 4, 2017 Units:  Both    English   Metric
« Previous Day
Next Day »
Daily Weekly Monthly Yearly Custom
  High: Low: Average:
Temperature: 73.3 °F /  22.9 °C 51.2 °F /  10.7 °C 60.6 °F /  15.9 °C
Dew Point: 57.9 °F /  14.4 °C 46.8 °F /  8.2 °C 53.3 °F /  11.8 °C
Humidity: 93 % 54 % 78 %
Wind Speed: 3.9 mph /  6.3 km/h - 0.4 mph /  0.6 km/h
Wind Gust: 8.1 mph /  13 km/h - -
Wind:- - South
Pressure: 29.99 in /  1015.5 hPa 29.80 in /  1009 hPa -
Precipitation: 0.06 in /  1.52 mm    
Historical Graphs
 
 
Tabular Data for June 4, 2017
Time Temperature Dew Point Pressure Wind Wind Speed Wind Gust Humidity Rainfall Rate (Hourly)
00:01 60.4 °F /  15.8 °C 49.8 °F /  9.9 °C 29.95 in /  1014.1 hPa WNW 0.1 mph /  0.2 km/h 1.2 mph /  1.9 km/h 68 % 0.00 in /  0 mm
00:03 60.3 °F /  15.7 °C 49.7 °F /  9.8 °C 29.95 in /  1014.1 hPa Calm     68 % 0.00 in /  0 mm
00:08 60.1 °F /  15.6 °C 49.1 °F /  9.5 °C 29.95 in /  1014.1 hPa Calm     67 % 0.00 in /  0 mm
00:13 59.9 °F /  15.5 °C 49.3 °F /  9.6 °C 29.95 in /  1014.1 hPa WNW 0.2 mph /  0.3 km/h 2.3 mph /  3.7 km/h 68 % 0.00 in /  0 mm
00:18 59.7 °F /  15.4 °C 49.1 °F /  9.5 °C 29.95 in /  1014.1 hPa Calm     68 % 0.00 in /  0 mm
00:23 59.5 °F /  15.3 °C 49.3 °F /  9.6 °C 29.95 in /  1014.1 hPa Calm     69 % 0.00 in /  0 mm
00:28 59.4 °F /  15.2 °C 49.6 °F /  9.8 °C 29.95 in /  1014.1 hPa Calm     70 % 0.00 in /  0 mm
00:33 59.2 °F /  15.1 °C 49.8 °F /  9.9 °C 29.95 in /  1014.1 hPa Calm     71 % 0.00 in /  0 mm
00:38 59.0 °F /  15 °C 49.6 °F /  9.8 °C 29.95 in /  1014.1 hPa Calm     71 % 0.00 in /  0 mm
00:43 58.9 °F /  14.9 °C 49.5 °F /  9.7 °C 29.95 in /  1014.1 hPa WNW 1.2 mph /  1.9 km/h 2.0 mph /  3.2 km/h 71 % 0.00 in /  0 mm
00:48 58.6 °F /  14.8 °C 49.2 °F /  9.6 °C 29.95 in /  1014.1 hPa Calm   2.3 mph /  3.7 km/h 71 % 0.00 in /  0 mm
00:53 58.4 °F /  14.7 °C 49.0 °F /  9.4 °C 29.95 in /  1014.1 hPa WNW 0.1 mph /  0.2 km/h 1.2 mph /  1.9 km/h 71 % 0.00 in /  0 mm
00:58 58.3 °F /  14.6 °C 48.9 °F /  9.4 °C 29.95 in /  1014.1 hPa Calm     71 % 0.00 in /  0 mm
01:03 58.2 °F /  14.6 °C 49.6 °F /  9.8 °C 29.96 in /  1014.4 hPa Calm     73 % 0.00 in /  0 mm
01:09 58.0 °F /  14.4 °C 49.8 °F /  9.9 °C 29.96 in /  1014.4 hPa WNW 0.2 mph /  0.3 km/h 1.2 mph /  1.9 km/h 74 % 0.00 in /  0 mm
01:13 57.8 °F /  14.3 °C 49.2 °F /  9.6 °C 29.96 in /  1014.4 hPa Calm     73 % 0.00 in /  0 mm
01:18 57.7 °F /  14.3 °C 49.5 °F /  9.7 °C 29.96 in /  1014.4 hPa Calm   1.2 mph /  1.9 km/h 74 % 0.00 in /  0 mm
01:23 57.5 °F /  14.2 °C 49.6 °F /  9.8 °C 29.96 in /  1014.4 hPa WNW 1.2 mph /  1.9 km/h 2.0 mph /  3.2 km/h 75 % 0.00 in /  0 mm
01:28 57.3 °F /  14.1 °C 49.8 °F /  9.9 °C 29.97 in /  1014.8 hPa WNW 0.3 mph /  0.5 km/h 1.2 mph /  1.9 km/h 76 % 0.00 in /  0 mm
01:34 57.2 °F /  14 °C 49.3 °F /  9.6 °C 29.97 in /  1014.8 hPa Calm   1.0 mph /  1.6 km/h 75 % 0.00 in /  0 mm
01:39 57.1 °F /  13.9 °C 49.6 °F /  9.8 °C 29.97 in /  1014.8 hPa West 1.2 mph /  1.9 km/h 3.5 mph /  5.6 km/h 76 % 0.00 in /  0 mm
01:44 56.9 °F /  13.8 °C 49.8 °F /  9.9 °C 29.97 in /  1014.8 hPa West 1.3 mph /  2.1 km/h 2.3 mph /  3.7 km/h 77 % 0.00 in /  0 mm
01:49 56.8 °F /  13.8 °C 49.7 °F /  9.8 °C 29.97 in /  1014.8 hPa West 1.5 mph /  2.4 km/h 2.3 mph /  3.7 km/h 77 % 0.00 in /  0 mm
01:54 56.8 °F /  13.8 °C 50.0 °F /  10 °C 29.97 in /  1014.8 hPa West 1.4 mph /  2.3 km/h 2.3 mph /  3.7 km/h 78 % 0.00 in /  0 mm
01:59 56.8 °F /  13.8 °C 50.0 °F /  10 °C 29.98 in /  1015.1 hPa WSW 0.8 mph /  1.3 km/h 2.3 mph /  3.7 km/h 78 % 0.00 in /  0 mm
02:04 56.8 °F /  13.8 °C 49.7 °F /  9.8 °C 29.98 in /  1015.1 hPa WSW 0.1 mph /  0.2 km/h 1.2 mph /  1.9 km/h 77 % 0.00 in /  0 mm
02:07 56.8 °F /  13.8 °C 49.7 °F /  9.8 °C 29.97 in /  1014.8 hPa WSW 0.2 mph /  0.3 km/h 1.2 mph /  1.9 km/h 77 % 0.00 in /  0 mm
02:12 56.7 °F /  13.7 °C 49.6 °F /  9.8 °C 29.97 in /  1014.8 hPa Calm     77 % 0.00 in /  0 mm
02:17 56.7 °F /  13.7 °C 49.6 °F /  9.8 °C 29.98 in /  1015.1 hPa WSW 0.6 mph /  1 km/h 2.3 mph /  3.7 km/h 77 % 0.00 in /  0 mm
02:22 56.7 °F /  13.7 °C 49.6 °F /  9.8 °C 29.98 in /  1015.1 hPa Calm     77 % 0.00 in /  0 mm
02:27 56.6 °F /  13.7 °C 49.5 °F /  9.7 °C 29.98 in /  1015.1 hPa Calm     77 % 0.00 in /  0 mm
02:30 56.6 °F /  13.7 °C 49.5 °F /  9.7 °C 29.98 in /  1015.1 hPa Calm     77 % 0.00 in /  0 mm
02:35 56.4 °F /  13.6 °C 49.3 °F /  9.6 °C 29.98 in /  1015.1 hPa Calm     77 % 0.00 in /  0 mm
02:41 56.3 °F /  13.5 °C 49.2 °F /  9.6 °C 29.97 in /  1014.8 hPa Calm     77 % 0.00 in /  0 mm
02:46 56.2 °F /  13.4 °C 49.4 °F /  9.7 °C 29.98 in /  1015.1 hPa Calm     78 % 0.00 in /  0 mm
02:51 56.0 °F /  13.3 °C 49.6 °F /  9.8 °C 29.98 in /  1015.1 hPa Calm     79 % 0.00 in /  0 mm
02:56 55.8 °F /  13.2 °C 49.4 °F /  9.7 °C 29.98 in /  1015.1 hPa Calm   2.0 mph /  3.2 km/h 79 % 0.00 in /  0 mm
03:01 55.6 °F /  13.1 °C 49.5 °F /  9.7 °C 29.98 in /  1015.1 hPa Calm     80 % 0.00 in /  0 mm
03:06 55.4 °F /  13 °C 49.3 °F /  9.6 °C 29.98 in /  1015.1 hPa Calm     80 % 0.00 in /  0 mm
03:11 55.2 °F /  12.9 °C 49.1 °F /  9.5 °C 29.98 in /  1015.1 hPa Calm     80 % 0.00 in /  0 mm
03:16 55.0 °F /  12.8 °C 49.3 °F /  9.6 °C 29.98 in /  1015.1 hPa Calm     81 % 0.00 in /  0 mm
03:21 54.8 °F /  12.7 °C 49.1 °F /  9.5 °C 29.98 in /  1015.1 hPa Calm     81 % 0.00 in /  0 mm
03:26 54.6 °F /  12.6 °C 48.9 °F /  9.4 °C 29.98 in /  1015.1 hPa WSW 0.1 mph /  0.2 km/h 1.2 mph /  1.9 km/h 81 % 0.00 in /  0 mm
03:31 54.5 °F /  12.5 °C 48.8 °F /  9.3 °C 29.98 in /  1015.1 hPa Calm     81 % 0.00 in /  0 mm
03:36 54.4 °F /  12.4 °C 48.7 °F /  9.3 °C 29.97 in /  1014.8 hPa Calm     81 % 0.00 in /  0 mm
03:41 54.2 °F /  12.3 °C 48.8 °F /  9.3 °C 29.97 in /  1014.8 hPa Calm     82 % 0.00 in /  0 mm
03:46 54.0 °F /  12.2 °C 48.6 °F /  9.2 °C 29.97 in /  1014.8 hPa Calm     82 % 0.00 in /  0 mm
03:51 53.9 °F /  12.2 °C 48.5 °F /  9.2 °C 29.97 in /  1014.8 hPa WSW 0.6 mph /  1 km/h 2.3 mph /  3.7 km/h 82 % 0.00 in /  0 mm
03:56 53.7 °F /  12.1 °C 48.7 °F /  9.3 °C 29.97 in /  1014.8 hPa Calm     83 % 0.00 in /  0 mm
04:01 53.6 °F /  12 °C 48.6 °F /  9.2 °C 29.97 in /  1014.8 hPa Calm   1.2 mph /  1.9 km/h 83 % 0.00 in /  0 mm
04:06 53.6 °F /  12 °C 48.6 °F /  9.2 °C 29.97 in /  1014.8 hPa Calm     83 % 0.00 in /  0 mm
04:11 53.5 °F /  11.9 °C 48.5 °F /  9.2 °C 29.98 in /  1015.1 hPa Calm     83 % 0.00 in /  0 mm
04:16 53.5 °F /  11.9 °C 48.5 °F /  9.2 °C 29.98 in /  1015.1 hPa Calm     83 % 0.00 in /  0 mm
04:21 53.5 °F /  11.9 °C 48.5 °F /  9.2 °C 29.98 in /  1015.1 hPa Calm     83 % 0.00 in /  0 mm
04:26 53.6 °F /  12 °C 48.6 °F /  9.2 °C 29.98 in /  1015.1 hPa Calm   1.2 mph /  1.9 km/h 83 % 0.00 in /  0 mm
04:31 53.5 °F /  11.9 °C 48.5 °F /  9.2 °C 29.98 in /  1015.1 hPa Calm     83 % 0.00 in /  0 mm
04:36 53.5 °F /  11.9 °C 48.5 °F /  9.2 °C 29.98 in /  1015.1 hPa Calm     83 % 0.00 in /  0 mm
04:41 53.5 °F /  11.9 °C 48.5 °F /  9.2 °C 29.98 in /  1015.1 hPa Calm     83 % 0.00 in /  0 mm
04:46 53.4 °F /  11.9 °C 48.4 °F /  9.1 °C 29.98 in /  1015.1 hPa Calm     83 % 0.00 in /  0 mm
04:51 53.3 °F /  11.8 °C 48.3 °F /  9.1 °C 29.98 in /  1015.1 hPa Calm     83 % 0.00 in /  0 mm
04:56 53.2 °F /  11.8 °C 48.5 °F /  9.2 °C 29.98 in /  1015.1 hPa Calm     84 % 0.00 in /  0 mm
05:01 53.1 °F /  11.7 °C 48.1 °F /  8.9 °C 29.97 in /  1014.8 hPa Calm     83 % 0.00 in /  0 mm
05:06 52.9 °F /  11.6 °C 48.2 °F /  9 °C 29.97 in /  1014.8 hPa Calm     84 % 0.00 in /  0 mm
05:12 52.8 °F /  11.6 °C 48.1 °F /  8.9 °C 29.98 in /  1015.1 hPa Calm     84 % 0.00 in /  0 mm
05:17 52.6 °F /  11.4 °C 47.9 °F /  8.8 °C 29.98 in /  1015.1 hPa Calm   1.2 mph /  1.9 km/h 84 % 0.00 in /  0 mm
05:22 52.5 °F /  11.4 °C 47.8 °F /  8.8 °C 29.97 in /  1014.8 hPa Calm     84 % 0.00 in /  0 mm
05:27 52.3 °F /  11.3 °C 47.6 °F /  8.7 °C 29.98 in /  1015.1 hPa Calm     84 % 0.00 in /  0 mm
05:32 52.1 °F /  11.2 °C 47.4 °F /  8.6 °C 29.97 in /  1014.8 hPa Calm     84 % 0.00 in /  0 mm
05:37 51.9 °F /  11.1 °C 47.5 °F /  8.6 °C 29.98 in /  1015.1 hPa Calm     85 % 0.00 in /  0 mm
05:42 51.8 °F /  11 °C 47.4 °F /  8.6 °C 29.98 in /  1015.1 hPa Calm     85 % 0.00 in /  0 mm
05:47 51.7 °F /  10.9 °C 47.3 °F /  8.5 °C 29.98 in /  1015.1 hPa Calm     85 % 0.00 in /  0 mm
05:52 51.5 °F /  10.8 °C 46.8 °F /  8.2 °C 29.98 in /  1015.1 hPa WSW 0.1 mph /  0.2 km/h 1.2 mph /  1.9 km/h 84 % 0.00 in /  0 mm
05:57 51.4 °F /  10.8 °C 47.0 °F /  8.3 °C 29.98 in /  1015.1 hPa Calm     85 % 0.00 in /  0 mm
06:02 51.3 °F /  10.7 °C 46.9 °F /  8.3 °C 29.98 in /  1015.1 hPa Calm     85 % 0.00 in /  0 mm
06:07 51.2 °F /  10.7 °C 46.8 °F /  8.2 °C 29.98 in /  1015.1 hPa Calm     85 % 0.00 in /  0 mm
06:12 51.2 °F /  10.7 °C 47.5 °F /  8.6 °C 29.99 in /  1015.5 hPa Calm     87 % 0.00 in /  0 mm
06:18 51.2 °F /  10.7 °C 47.5 °F /  8.6 °C 29.99 in /  1015.5 hPa Calm     87 % 0.00 in /  0 mm
06:23 51.3 °F /  10.7 °C 47.6 °F /  8.7 °C 29.99 in /  1015.5 hPa Calm   1.2 mph /  1.9 km/h 87 % 0.00 in /  0 mm
06:28 51.4 °F /  10.8 °C 48.0 °F /  8.9 °C 29.99 in /  1015.5 hPa Calm     88 % 0.00 in /  0 mm
06:33 51.7 °F /  10.9 °C 48.6 °F /  9.2 °C 29.99 in /  1015.5 hPa Calm     89 % 0.00 in /  0 mm
06:38 52.0 °F /  11.1 °C 49.2 °F /  9.6 °C 29.99 in /  1015.5 hPa Calm     90 % 0.00 in /  0 mm
06:43 52.3 °F /  11.3 °C 49.5 °F /  9.7 °C 29.99 in /  1015.5 hPa Calm     90 % 0.00 in /  0 mm
06:48 52.9 °F /  11.6 °C 49.7 °F /  9.8 °C 29.99 in /  1015.5 hPa Calm     89 % 0.00 in /  0 mm
06:53 53.5 °F /  11.9 °C 50.3 °F /  10.2 °C 29.99 in /  1015.5 hPa Calm     89 % 0.00 in /  0 mm
06:58 54.1 °F /  12.3 °C 51.2 °F /  10.7 °C 29.99 in /  1015.5 hPa Calm     90 % 0.00 in /  0 mm
07:03 54.7 °F /  12.6 °C 51.5 °F /  10.8 °C 29.99 in /  1015.5 hPa Calm     89 % 0.00 in /  0 mm
07:08 55.4 °F /  13 °C 51.6 °F /  10.9 °C 29.99 in /  1015.5 hPa Calm     87 % 0.00 in /  0 mm
07:13 56.2 °F /  13.4 °C 52.1 °F /  11.2 °C 29.98 in /  1015.1 hPa Calm     86 % 0.00 in /  0 mm
07:18 57.1 °F /  13.9 °C 52.6 °F /  11.4 °C 29.98 in /  1015.1 hPa Calm     85 % 0.00 in /  0 mm
07:23 58.0 °F /  14.4 °C 53.5 °F /  11.9 °C 29.99 in /  1015.5 hPa Calm     85 % 0.00 in /  0 mm
07:28 58.7 °F /  14.8 °C 53.5 °F /  11.9 °C 29.99 in /  1015.5 hPa Calm   1.2 mph /  1.9 km/h 83 % 0.00 in /  0 mm
07:33 59.4 °F /  15.2 °C 51.1 °F /  10.6 °C 29.99 in /  1015.5 hPa Calm   1.2 mph /  1.9 km/h 74 % 0.00 in /  0 mm
07:38 59.9 °F /  15.5 °C 51.6 °F /  10.9 °C 29.99 in /  1015.5 hPa Calm     74 % 0.00 in /  0 mm
07:43 60.3 °F /  15.7 °C 51.6 °F /  10.9 °C 29.98 in /  1015.1 hPa Calm     73 % 0.00 in /  0 mm
07:48 60.6 °F /  15.9 °C 52.3 °F /  11.3 °C 29.98 in /  1015.1 hPa Calm     74 % 0.00 in /  0 mm
07:53 60.9 °F /  16.1 °C 52.2 °F /  11.2 °C 29.98 in /  1015.1 hPa Calm     73 % 0.00 in /  0 mm
07:59 61.3 °F /  16.3 °C 52.2 °F /  11.2 °C 29.98 in /  1015.1 hPa Calm     72 % 0.00 in /  0 mm
08:03 61.6 °F /  16.4 °C 53.2 °F /  11.8 °C 29.99 in /  1015.5 hPa NNW 0.6 mph /  1 km/h 1.2 mph /  1.9 km/h 74 % 0.00 in /  0 mm
08:08 61.9 °F /  16.6 °C 52.8 °F /  11.6 °C 29.99 in /  1015.5 hPa NNW 0.1 mph /  0.2 km/h 1.2 mph /  1.9 km/h 72 % 0.00 in /  0 mm
08:14 62.3 °F /  16.8 °C 53.9 °F /  12.2 °C 29.99 in /  1015.5 hPa NW 0.6 mph /  1 km/h 3.0 mph /  4.8 km/h 74 % 0.00 in /  0 mm
08:19 62.6 °F /  17 °C 53.1 °F /  11.7 °C 29.99 in /  1015.5 hPa WNW 0.5 mph /  0.8 km/h 3.5 mph /  5.6 km/h 71 % 0.00 in /  0 mm
08:24 62.9 °F /  17.2 °C 53.7 °F /  12.1 °C 29.99 in /  1015.5 hPa WNW 1.2 mph /  1.9 km/h 2.3 mph /  3.7 km/h 72 % 0.00 in /  0 mm
08:29 63.2 °F /  17.3 °C 53.6 °F /  12 °C 29.99 in /  1015.5 hPa WNW 0.2 mph /  0.3 km/h 2.3 mph /  3.7 km/h 71 % 0.00 in /  0 mm
08:34 63.4 °F /  17.4 °C 53.8 °F /  12.1 °C 29.99 in /  1015.5 hPa WNW 0.4 mph /  0.6 km/h 1.2 mph /  1.9 km/h 71 % 0.00 in /  0 mm
08:39 63.6 °F /  17.6 °C 52.8 °F /  11.6 °C 29.99 in /  1015.5 hPa SW 1.9 mph /  3.1 km/h 4.6 mph /  7.4 km/h 68 % 0.00 in /  0 mm
08:44 63.7 °F /  17.6 °C 50.4 °F /  10.2 °C 29.99 in /  1015.5 hPa WSW 0.9 mph /  1.4 km/h 4.6 mph /  7.4 km/h 62 % 0.00 in /  0 mm
08:49 63.9 °F /  17.7 °C 50.6 °F /  10.3 °C 29.99 in /  1015.5 hPa WSW 0.3 mph /  0.5 km/h 1.2 mph /  1.9 km/h 62 % 0.00 in /  0 mm
08:54 64.1 °F /  17.8 °C 51.2 °F /  10.7 °C 29.99 in /  1015.5 hPa WNW 1.5 mph /  2.4 km/h 3.5 mph /  5.6 km/h 63 % 0.00 in /  0 mm
08:59 64.2 °F /  17.9 °C 51.8 °F /  11 °C 29.99 in /  1015.5 hPa WNW 0.7 mph /  1.1 km/h 2.3 mph /  3.7 km/h 64 % 0.00 in /  0 mm
09:04 64.3 °F /  17.9 °C 51.9 °F /  11.1 °C 29.99 in /  1015.5 hPa Calm   1.0 mph /  1.6 km/h 64 % 0.00 in /  0 mm
09:09 64.3 °F /  17.9 °C 50.1 °F /  10.1 °C 29.99 in /  1015.5 hPa NW 1.0 mph /  1.6 km/h 2.0 mph /  3.2 km/h 60 % 0.00 in /  0 mm
09:14 64.5 °F /  18.1 °C 51.2 °F /  10.7 °C 29.99 in /  1015.5 hPa Calm     62 % 0.00 in /  0 mm
09:19 64.5 °F /  18.1 °C 52.9 °F /  11.6 °C 29.99 in /  1015.5 hPa NW 0.1 mph /  0.2 km/h 1.2 mph /  1.9 km/h 66 % 0.00 in /  0 mm
09:24 64.7 °F /  18.2 °C 55.1 °F /  12.8 °C 29.99 in /  1015.5 hPa NW 0.6 mph /  1 km/h 3.0 mph /  4.8 km/h 71 % 0.00 in /  0 mm
09:29 64.8 °F /  18.2 °C 55.2 °F /  12.9 °C 29.99 in /  1015.5 hPa North 1.1 mph /  1.8 km/h 3.5 mph /  5.6 km/h 71 % 0.00 in /  0 mm
09:34 65.0 °F /  18.3 °C 55.0 °F /  12.8 °C 29.99 in /  1015.5 hPa NW 0.4 mph /  0.6 km/h 3.5 mph /  5.6 km/h 70 % 0.00 in /  0 mm
09:39 65.4 °F /  18.6 °C 54.6 °F /  12.6 °C 29.99 in /  1015.5 hPa NW 0.4 mph /  0.6 km/h 3.5 mph /  5.6 km/h 68 % 0.00 in /  0 mm
09:44 65.9 °F /  18.8 °C 53.8 °F /  12.1 °C 29.98 in /  1015.1 hPa NW 0.3 mph /  0.5 km/h 2.0 mph /  3.2 km/h 65 % 0.00 in /  0 mm
09:49 66.8 °F /  19.3 °C 55.9 °F /  13.3 °C 29.98 in /  1015.1 hPa NE 1.5 mph /  2.4 km/h 4.0 mph /  6.4 km/h 68 % 0.00 in /  0 mm
09:54 67.7 °F /  19.8 °C 56.8 °F /  13.8 °C 29.98 in /  1015.1 hPa NNW 0.5 mph /  0.8 km/h 3.5 mph /  5.6 km/h 68 % 0.00 in /  0 mm
10:00 68.6 °F /  20.3 °C 55.9 °F /  13.3 °C 29.98 in /  1015.1 hPa Calm   2.3 mph /  3.7 km/h 64 % 0.00 in /  0 mm
10:05 69.6 °F /  20.9 °C 56.9 °F /  13.8 °C 29.98 in /  1015.1 hPa NW 1.5 mph /  2.4 km/h 3.5 mph /  5.6 km/h 64 % 0.00 in /  0 mm
10:10 70.8 °F /  21.6 °C 56.7 °F /  13.7 °C 29.98 in /  1015.1 hPa NNE 0.9 mph /  1.4 km/h 3.5 mph /  5.6 km/h 61 % 0.00 in /  0 mm
10:15 71.6 °F /  22 °C 56.5 °F /  13.6 °C 29.98 in /  1015.1 hPa North 1.4 mph /  2.3 km/h 3.5 mph /  5.6 km/h 59 % 0.00 in /  0 mm
10:20 72.4 °F /  22.4 °C 57.7 °F /  14.3 °C 29.98 in /  1015.1 hPa North 1.5 mph /  2.4 km/h 3.5 mph /  5.6 km/h 60 % 0.00 in /  0 mm
10:21 72.6 °F /  22.6 °C 57.9 °F /  14.4 °C 29.98 in /  1015.1 hPa NNE 2.9 mph /  4.7 km/h 3.5 mph /  5.6 km/h 60 % 0.00 in /  0 mm
10:26 73.1 °F /  22.8 °C 57.4 °F /  14.1 °C 29.98 in /  1015.1 hPa North 2.8 mph /  4.5 km/h 3.5 mph /  5.6 km/h 58 % 0.00 in /  0 mm
10:31 73.3 °F /  22.9 °C 57.1 °F /  13.9 °C 29.98 in /  1015.1 hPa NNE 2.8 mph /  4.5 km/h 4.0 mph /  6.4 km/h 57 % 0.00 in /  0 mm
10:36 73.3 °F /  22.9 °C 57.6 °F /  14.2 °C 29.98 in /  1015.1 hPa NE 0.5 mph /  0.8 km/h 2.3 mph /  3.7 km/h 58 % 0.00 in /  0 mm
10:41 73.1 °F /  22.8 °C 56.0 °F /  13.3 °C 29.98 in /  1015.1 hPa NNE 2.5 mph /  4 km/h 4.0 mph /  6.4 km/h 55 % 0.00 in /  0 mm
10:46 72.8 °F /  22.7 °C 56.7 °F /  13.7 °C 29.98 in /  1015.1 hPa NNE 2.9 mph /  4.7 km/h 4.0 mph /  6.4 km/h 57 % 0.00 in /  0 mm
10:51 72.3 °F /  22.4 °C 57.6 °F /  14.2 °C 29.98 in /  1015.1 hPa NNE 1.8 mph /  2.9 km/h 3.5 mph /  5.6 km/h 60 % 0.00 in /  0 mm
10:56 72.1 °F /  22.3 °C 57.0 °F /  13.9 °C 29.98 in /  1015.1 hPa NNE 1.2 mph /  1.9 km/h 3.5 mph /  5.6 km/h 59 % 0.00 in /  0 mm
11:01 71.8 °F /  22.1 °C 56.2 °F /  13.4 °C 29.98 in /  1015.1 hPa NE 0.8 mph /  1.3 km/h 2.3 mph /  3.7 km/h 58 % 0.00 in /  0 mm
11:06 71.5 °F /  21.9 °C 56.9 °F /  13.8 °C 29.98 in /  1015.1 hPa NE 1.3 mph /  2.1 km/h 1.3 mph /  2.1 km/h 60 % 0.00 in /  0 mm
11:11 71.2 °F /  21.8 °C 56.1 °F /  13.4 °C 29.97 in /  1014.8 hPa ENE 2.2 mph /  3.5 km/h 3.5 mph /  5.6 km/h 59 % 0.00 in /  0 mm
11:16 71.3 °F /  21.8 °C 56.2 °F /  13.4 °C 29.97 in /  1014.8 hPa NE 1.2 mph /  1.9 km/h 2.3 mph /  3.7 km/h 59 % 0.00 in /  0 mm
11:21 71.0 °F /  21.7 °C 56.4 °F /  13.6 °C 29.97 in /  1014.8 hPa ENE 1.0 mph /  1.6 km/h 3.0 mph /  4.8 km/h 60 % 0.00 in /  0 mm
11:26 70.5 °F /  21.4 °C 55.9 °F /  13.3 °C 29.97 in /  1014.8 hPa ENE 0.5 mph /  0.8 km/h 2.0 mph /  3.2 km/h 60 % 0.00 in /  0 mm
11:31 69.9 °F /  21.1 °C 55.8 °F /  13.2 °C 29.96 in /  1014.4 hPa NE 0.5 mph /  0.8 km/h 3.5 mph /  5.6 km/h 61 % 0.00 in /  0 mm
11:36 69.2 °F /  20.7 °C 55.6 °F /  13.1 °C 29.96 in /  1014.4 hPa ENE 1.2 mph /  1.9 km/h 2.3 mph /  3.7 km/h 62 % 0.00 in /  0 mm
11:41 68.5 °F /  20.3 °C 55.8 °F /  13.2 °C 29.96 in /  1014.4 hPa ENE 0.1 mph /  0.2 km/h 3.5 mph /  5.6 km/h 64 % 0.00 in /  0 mm
11:47 68.4 °F /  20.2 °C 55.7 °F /  13.2 °C 29.96 in /  1014.4 hPa ENE 0.6 mph /  1 km/h   64 % 0.00 in /  0 mm
11:52 68.3 °F /  20.2 °C 55.2 °F /  12.9 °C 29.96 in /  1014.4 hPa Calm   1.2 mph /  1.9 km/h 63 % 0.00 in /  0 mm
11:57 68.5 °F /  20.3 °C 56.7 °F /  13.7 °C 29.95 in /  1014.1 hPa ENE 0.7 mph /  1.1 km/h 2.3 mph /  3.7 km/h 66 % 0.00 in /  0 mm
12:02 68.5 °F /  20.3 °C 54.1 °F /  12.3 °C 29.96 in /  1014.4 hPa Calm   1.2 mph /  1.9 km/h 60 % 0.00 in /  0 mm
12:07 68.7 °F /  20.4 °C 54.7 °F /  12.6 °C 29.95 in /  1014.1 hPa ENE 0.5 mph /  0.8 km/h 1.2 mph /  1.9 km/h 61 % 0.00 in /  0 mm
12:12 68.9 °F /  20.5 °C 53.0 °F /  11.7 °C 29.94 in /  1013.8 hPa Calm     57 % 0.00 in /  0 mm
12:17 69.0 °F /  20.6 °C 52.6 °F /  11.4 °C 29.94 in /  1013.8 hPa Calm   1.2 mph /  1.9 km/h 56 % 0.00 in /  0 mm
12:22 69.3 °F /  20.7 °C 53.4 °F /  11.9 °C 29.94 in /  1013.8 hPa East 0.7 mph /  1.1 km/h 2.3 mph /  3.7 km/h 57 % 0.00 in /  0 mm
12:27 69.5 °F /  20.8 °C 55.0 °F /  12.8 °C 29.94 in /  1013.8 hPa East 1.0 mph /  1.6 km/h 2.3 mph /  3.7 km/h 60 % 0.00 in /  0 mm
12:32 69.8 °F /  21 °C 53.4 °F /  11.9 °C 29.93 in /  1013.4 hPa NE 0.8 mph /  1.3 km/h 2.3 mph /  3.7 km/h 56 % 0.00 in /  0 mm
12:37 69.9 °F /  21.1 °C 52.5 °F /  11.4 °C 29.93 in /  1013.4 hPa NE 1.5 mph /  2.4 km/h 2.3 mph /  3.7 km/h 54 % 0.00 in /  0 mm
12:42 69.9 °F /  21.1 °C 53.0 °F /  11.7 °C 29.93 in /  1013.4 hPa ENE 0.2 mph /  0.3 km/h 3.5 mph /  5.6 km/h 55 % 0.00 in /  0 mm
12:47 69.9 °F /  21.1 °C 53.0 °F /  11.7 °C 29.93 in /  1013.4 hPa NNE 1.3 mph /  2.1 km/h 2.3 mph /  3.7 km/h 55 % 0.00 in /  0 mm
12:52 69.8 °F /  21 °C 52.9 °F /  11.6 °C 29.93 in /  1013.4 hPa NNE 0.3 mph /  0.5 km/h 1.2 mph /  1.9 km/h 55 % 0.00 in /  0 mm
12:57 69.6 °F /  20.9 °C 53.2 °F /  11.8 °C 29.92 in /  1013.1 hPa NNE 0.3 mph /  0.5 km/h 2.0 mph /  3.2 km/h 56 % 0.00 in /  0 mm
13:02 69.3 °F /  20.7 °C 52.9 °F /  11.6 °C 29.92 in /  1013.1 hPa NNE 0.5 mph /  0.8 km/h 1.2 mph /  1.9 km/h 56 % 0.00 in /  0 mm
13:07 69.2 °F /  20.7 °C 52.3 °F /  11.3 °C 29.92 in /  1013.1 hPa Calm   1.2 mph /  1.9 km/h 55 % 0.00 in /  0 mm
13:13 69.0 °F /  20.6 °C 53.6 °F /  12 °C 29.92 in /  1013.1 hPa Calm     58 % 0.00 in /  0 mm
13:18 68.7 °F /  20.4 °C 52.4 °F /  11.3 °C 29.92 in /  1013.1 hPa Calm     56 % 0.00 in /  0 mm
13:23 68.5 °F /  20.3 °C 52.2 °F /  11.2 °C 29.92 in /  1013.1 hPa Calm     56 % 0.00 in /  0 mm
13:28 68.3 °F /  20.2 °C 52.9 °F /  11.6 °C 29.92 in /  1013.1 hPa WNW 1.1 mph /  1.8 km/h 3.0 mph /  4.8 km/h 58 % 0.00 in /  0 mm
13:33 68.1 °F /  20.1 °C 52.3 °F /  11.3 °C 29.92 in /  1013.1 hPa SW 0.7 mph /  1.1 km/h 2.3 mph /  3.7 km/h 57 % 0.00 in /  0 mm
13:38 68.0 °F /  20 °C 52.7 °F /  11.5 °C 29.92 in /  1013.1 hPa SSW 0.6 mph /  1 km/h 2.3 mph /  3.7 km/h 58 % 0.00 in /  0 mm
13:43 67.9 °F /  19.9 °C 53.0 °F /  11.7 °C 29.92 in /  1013.1 hPa SSW 0.1 mph /  0.2 km/h 1.2 mph /  1.9 km/h 59 % 0.00 in /  0 mm
13:53 67.7 °F /  19.8 °C 52.9 °F /  11.6 °C 29.93 in /  1013.4 hPa SW 1.1 mph /  1.8 km/h 2.3 mph /  3.7 km/h 59 % 0.00 in /  0 mm
13:58 67.6 °F /  19.8 °C 52.8 °F /  11.6 °C 29.94 in /  1013.8 hPa WSW 0.6 mph /  1 km/h 2.3 mph /  3.7 km/h 59 % 0.00 in /  0 mm
14:03 67.5 °F /  19.7 °C 52.7 °F /  11.5 °C 29.94 in /  1013.8 hPa WSW 1.3 mph /  2.1 km/h 3.5 mph /  5.6 km/h 59 % 0.00 in /  0 mm
14:08 67.4 °F /  19.7 °C 52.6 °F /  11.4 °C 29.94 in /  1013.8 hPa WSW 1.1 mph /  1.8 km/h 3.0 mph /  4.8 km/h 59 % 0.00 in /  0 mm
14:13 67.4 °F /  19.7 °C 53.5 °F /  11.9 °C 29.94 in /  1013.8 hPa SW 3.9 mph /  6.3 km/h 8.1 mph /  13 km/h 61 % 0.00 in /  0 mm
14:18 67.3 °F /  19.6 °C 53.4 °F /  11.9 °C 29.94 in /  1013.8 hPa SW 1.3 mph /  2.1 km/h 2.3 mph /  3.7 km/h 61 % 0.00 in /  0 mm
14:23 67.2 °F /  19.6 °C 54.2 °F /  12.3 °C 29.94 in /  1013.8 hPa WSW 3.8 mph /  6.1 km/h 5.8 mph /  9.3 km/h 63 % 0.00 in /  0 mm
14:28 67.1 °F /  19.5 °C 54.5 °F /  12.5 °C 29.94 in /  1013.8 hPa SW 3.2 mph /  5.1 km/h 5.8 mph /  9.3 km/h 64 % 0.00 in /  0 mm
14:33 66.9 °F /  19.4 °C 53.9 °F /  12.2 °C 29.95 in /  1014.1 hPa WSW 2.2 mph /  3.5 km/h 8.1 mph /  13 km/h 63 % 0.00 in /  0 mm
14:38 66.7 °F /  19.3 °C 55.0 °F /  12.8 °C 29.95 in /  1014.1 hPa SSW 2.7 mph /  4.3 km/h 6.0 mph /  9.7 km/h 66 % 0.00 in /  0 mm
14:43 66.4 °F /  19.1 °C 55.5 °F /  13.1 °C 29.95 in /  1014.1 hPa WSW 1.6 mph /  2.6 km/h 3.5 mph /  5.6 km/h 68 % 0.00 in /  0 mm
14:48 65.9 °F /  18.8 °C 55.8 °F /  13.2 °C 29.95 in /  1014.1 hPa WSW 2.7 mph /  4.3 km/h 5.8 mph /  9.3 km/h 70 % 0.00 in /  0 mm
14:53 65.5 °F /  18.6 °C 56.2 °F /  13.4 °C 29.95 in /  1014.1 hPa Calm     72 % 0.01 in /  0.25 mm
14:58 65.1 °F /  18.4 °C 56.6 °F /  13.7 °C 29.95 in /  1014.1 hPa West 2.4 mph /  3.9 km/h 3.5 mph /  5.6 km/h 74 % 0.01 in /  0.25 mm
15:03 64.7 °F /  18.2 °C 56.6 °F /  13.7 °C 29.94 in /  1013.8 hPa SW 0.1 mph /  0.2 km/h 2.3 mph /  3.7 km/h 75 % 0.01 in /  0.25 mm
15:08 64.3 °F /  17.9 °C 56.2 °F /  13.4 °C 29.94 in /  1013.8 hPa Calm   1.2 mph /  1.9 km/h 75 % 0.02 in /  0.51 mm
15:13 63.9 °F /  17.7 °C 56.2 °F /  13.4 °C 29.94 in /  1013.8 hPa SW 0.1 mph /  0.2 km/h 1.2 mph /  1.9 km/h 76 % 0.03 in /  0.76 mm
15:18 63.6 °F /  17.6 °C 56.6 °F /  13.7 °C 29.94 in /  1013.8 hPa Calm     78 % 0.03 in /  0.76 mm
15:23 63.2 °F /  17.3 °C 56.6 °F /  13.7 °C 29.94 in /  1013.8 hPa SW 0.3 mph /  0.5 km/h 1.2 mph /  1.9 km/h 79 % 0.03 in /  0.76 mm
15:28 62.9 °F /  17.2 °C 56.6 °F /  13.7 °C 29.94 in /  1013.8 hPa SW 0.3 mph /  0.5 km/h   80 % 0.04 in /  1.02 mm
15:33 62.5 °F /  16.9 °C 56.6 °F /  13.7 °C 29.93 in /  1013.4 hPa Calm   2.3 mph /  3.7 km/h 81 % 0.04 in /  1.02 mm
15:38 62.1 °F /  16.7 °C 56.9 °F /  13.8 °C 29.92 in /  1013.1 hPa Calm     83 % 0.04 in /  1.02 mm
15:43 61.9 °F /  16.6 °C 56.7 °F /  13.7 °C 29.92 in /  1013.1 hPa Calm     83 % 0.04 in /  1.02 mm
15:48 61.7 °F /  16.5 °C 56.8 °F /  13.8 °C 29.92 in /  1013.1 hPa SW 0.2 mph /  0.3 km/h 2.3 mph /  3.7 km/h 84 % 0.04 in /  1.02 mm
15:54 61.4 °F /  16.3 °C 56.5 °F /  13.6 °C 29.91 in /  1012.8 hPa SW 0.2 mph /  0.3 km/h 1.2 mph /  1.9 km/h 84 % 0.04 in /  1.02 mm
15:59 61.0 °F /  16.1 °C 56.1 °F /  13.4 °C 29.91 in /  1012.8 hPa SE 0.4 mph /  0.6 km/h 3.5 mph /  5.6 km/h 84 % 0.04 in /  1.02 mm
16:04 60.9 °F /  16.1 °C 56.4 °F /  13.6 °C 29.90 in /  1012.4 hPa Calm   1.2 mph /  1.9 km/h 85 % 0.04 in /  1.02 mm
16:09 60.6 °F /  15.9 °C 56.1 °F /  13.4 °C 29.91 in /  1012.8 hPa SE 0.1 mph /  0.2 km/h 3.5 mph /  5.6 km/h 85 % 0.03 in /  0.76 mm
16:14 60.5 °F /  15.8 °C 56.3 °F /  13.5 °C 29.91 in /  1012.8 hPa Calm   1.0 mph /  1.6 km/h 86 % 0.02 in /  0.51 mm
16:19 60.5 °F /  15.8 °C 56.3 °F /  13.5 °C 29.90 in /  1012.4 hPa Calm     86 % 0.03 in /  0.76 mm
16:24 60.5 °F /  15.8 °C 56.6 °F /  13.7 °C 29.90 in /  1012.4 hPa Calm     87 % 0.03 in /  0.76 mm
16:29 60.4 °F /  15.8 °C 56.5 °F /  13.6 °C 29.89 in /  1012.1 hPa SSE 2.5 mph /  4 km/h 4.0 mph /  6.4 km/h 87 % 0.02 in /  0.51 mm
16:34 60.2 °F /  15.7 °C 56.0 °F /  13.3 °C 29.88 in /  1011.7 hPa SE 0.2 mph /  0.3 km/h 2.3 mph /  3.7 km/h 86 % 0.02 in /  0.51 mm
16:35 60.1 °F /  15.6 °C 55.9 °F /  13.3 °C 29.88 in /  1011.7 hPa SSE 0.8 mph /  1.3 km/h 2.3 mph /  3.7 km/h 86 % 0.02 in /  0.51 mm
16:40 60.0 °F /  15.6 °C 55.8 °F /  13.2 °C 29.88 in /  1011.7 hPa SE 1.4 mph /  2.3 km/h 3.5 mph /  5.6 km/h 86 % 0.02 in /  0.51 mm
16:45 59.9 °F /  15.5 °C 55.7 °F /  13.2 °C 29.88 in /  1011.7 hPa SE 0.2 mph /  0.3 km/h 2.3 mph /  3.7 km/h 86 % 0.02 in /  0.51 mm
16:50 59.9 °F /  15.5 °C 56.0 °F /  13.3 °C 29.87 in /  1011.4 hPa SE 0.8 mph /  1.3 km/h 2.3 mph /  3.7 km/h 87 % 0.02 in /  0.51 mm
16:55 59.8 °F /  15.4 °C 55.6 °F /  13.1 °C 29.87 in /  1011.4 hPa SE 0.4 mph /  0.6 km/h 3.5 mph /  5.6 km/h 86 % 0.01 in /  0.25 mm
17:00 59.7 °F /  15.4 °C 55.5 °F /  13.1 °C 29.87 in /  1011.4 hPa SE 0.4 mph /  0.6 km/h 3.5 mph /  5.6 km/h 86 % 0.01 in /  0.25 mm
17:05 59.7 °F /  15.4 °C 55.5 °F /  13.1 °C 29.87 in /  1011.4 hPa SE 0.6 mph /  1 km/h 3.0 mph /  4.8 km/h 86 % 0.01 in /  0.25 mm
17:10 59.7 °F /  15.4 °C 55.5 °F /  13.1 °C 29.86 in /  1011.1 hPa SE 2.2 mph /  3.5 km/h 4.6 mph /  7.4 km/h 86 % 0.01 in /  0.25 mm
17:15 59.7 °F /  15.4 °C 55.2 °F /  12.9 °C 29.86 in /  1011.1 hPa SE 1.7 mph /  2.7 km/h 3.5 mph /  5.6 km/h 85 % 0.00 in /  0 mm
17:20 59.8 °F /  15.4 °C 55.6 °F /  13.1 °C 29.86 in /  1011.1 hPa SE 0.1 mph /  0.2 km/h 1.2 mph /  1.9 km/h 86 % 0.00 in /  0 mm
17:25 59.8 °F /  15.4 °C 55.6 °F /  13.1 °C 29.86 in /  1011.1 hPa Calm   1.0 mph /  1.6 km/h 86 % 0.00 in /  0 mm
17:30 59.9 °F /  15.5 °C 56.0 °F /  13.3 °C 29.86 in /  1011.1 hPa SE 0.6 mph /  1 km/h 3.5 mph /  5.6 km/h 87 % 0.00 in /  0 mm
17:35 59.9 °F /  15.5 °C 56.0 °F /  13.3 °C 29.86 in /  1011.1 hPa Calm     87 % 0.00 in /  0 mm
17:40 59.9 °F /  15.5 °C 56.0 °F /  13.3 °C 29.86 in /  1011.1 hPa SE 0.2 mph /  0.3 km/h 1.2 mph /  1.9 km/h 87 % 0.00 in /  0 mm
17:45 59.9 °F /  15.5 °C 56.0 °F /  13.3 °C 29.86 in /  1011.1 hPa Calm     87 % 0.00 in /  0 mm
17:50 59.9 °F /  15.5 °C 56.0 °F /  13.3 °C 29.86 in /  1011.1 hPa SE 0.3 mph /  0.5 km/h 2.3 mph /  3.7 km/h 87 % 0.00 in /  0 mm
17:55 59.9 °F /  15.5 °C 56.0 °F /  13.3 °C 29.86 in /  1011.1 hPa Calm     87 % 0.00 in /  0 mm
18:00 59.9 °F /  15.5 °C 56.0 °F /  13.3 °C 29.86 in /  1011.1 hPa Calm     87 % 0.00 in /  0 mm
18:05 59.9 °F /  15.5 °C 56.0 °F /  13.3 °C 29.85 in /  1010.7 hPa Calm     87 % 0.00 in /  0 mm
18:10 60.0 °F /  15.6 °C 56.4 °F /  13.6 °C 29.85 in /  1010.7 hPa Calm     88 % 0.00 in /  0 mm
18:15 60.0 °F /  15.6 °C 56.4 °F /  13.6 °C 29.85 in /  1010.7 hPa Calm     88 % 0.00 in /  0 mm
18:20 59.9 °F /  15.5 °C 56.3 °F /  13.5 °C 29.85 in /  1010.7 hPa Calm     88 % 0.00 in /  0 mm
18:25 59.9 °F /  15.5 °C 56.3 °F /  13.5 °C 29.85 in /  1010.7 hPa Calm     88 % 0.00 in /  0 mm
18:31 60.0 °F /  15.6 °C 56.7 °F /  13.7 °C 29.85 in /  1010.7 hPa Calm     89 % 0.00 in /  0 mm
18:41 59.9 °F /  15.5 °C 56.6 °F /  13.7 °C 29.85 in /  1010.7 hPa SE 0.1 mph /  0.2 km/h 1.2 mph /  1.9 km/h 89 % 0.00 in /  0 mm
18:46 59.8 °F /  15.4 °C 56.6 °F /  13.7 °C 29.85 in /  1010.7 hPa NE 0.7 mph /  1.1 km/h 1.2 mph /  1.9 km/h 89 % 0.00 in /  0 mm
18:51 59.7 °F /  15.4 °C 56.5 °F /  13.6 °C 29.85 in /  1010.7 hPa Calm     89 % 0.00 in /  0 mm
18:57 59.7 °F /  15.4 °C 56.8 °F /  13.8 °C 29.85 in /  1010.7 hPa NE 0.1 mph /  0.2 km/h 1.2 mph /  1.9 km/h 90 % 0.00 in /  0 mm
19:02 59.6 °F /  15.3 °C 56.7 °F /  13.7 °C 29.85 in /  1010.7 hPa Calm     90 % 0.00 in /  0 mm
19:07 59.5 °F /  15.3 °C 56.3 °F /  13.5 °C 29.86 in /  1011.1 hPa Calm   1.2 mph /  1.9 km/h 89 % 0.00 in /  0 mm
19:09 59.5 °F /  15.3 °C 56.3 °F /  13.5 °C 29.86 in /  1011.1 hPa Calm     89 % 0.00 in /  0 mm
19:14 59.5 °F /  15.3 °C 56.3 °F /  13.5 °C 29.86 in /  1011.1 hPa Calm     89 % 0.00 in /  0 mm
19:19 59.5 °F /  15.3 °C 56.3 °F /  13.5 °C 29.86 in /  1011.1 hPa Calm     89 % 0.00 in /  0 mm
19:24 59.5 °F /  15.3 °C 56.3 °F /  13.5 °C 29.86 in /  1011.1 hPa Calm     89 % 0.00 in /  0 mm
19:29 59.5 °F /  15.3 °C 56.3 °F /  13.5 °C 29.86 in /  1011.1 hPa Calm     89 % 0.00 in /  0 mm
19:34 59.5 °F /  15.3 °C 56.3 °F /  13.5 °C 29.87 in /  1011.4 hPa NE 0.1 mph /  0.2 km/h 2.3 mph /  3.7 km/h 89 % 0.00 in /  0 mm
19:39 59.5 °F /  15.3 °C 56.3 °F /  13.5 °C 29.86 in /  1011.1 hPa Calm     89 % 0.00 in /  0 mm
19:44 59.5 °F /  15.3 °C 56.6 °F /  13.7 °C 29.87 in /  1011.4 hPa NE 0.1 mph /  0.2 km/h 3.5 mph /  5.6 km/h 90 % 0.00 in /  0 mm
19:49 59.4 °F /  15.2 °C 56.5 °F /  13.6 °C 29.86 in /  1011.1 hPa ENE 0.1 mph /  0.2 km/h 1.2 mph /  1.9 km/h 90 % 0.00 in /  0 mm
19:54 59.3 °F /  15.2 °C 56.7 °F /  13.7 °C 29.86 in /  1011.1 hPa Calm     91 % 0.00 in /  0 mm
19:59 59.3 °F /  15.2 °C 56.7 °F /  13.7 °C 29.86 in /  1011.1 hPa ENE 0.2 mph /  0.3 km/h 1.2 mph /  1.9 km/h 91 % 0.00 in /  0 mm
20:04 59.3 °F /  15.2 °C 56.4 °F /  13.6 °C 29.86 in /  1011.1 hPa ENE 0.1 mph /  0.2 km/h 1.2 mph /  1.9 km/h 90 % 0.00 in /  0 mm
20:09 59.2 °F /  15.1 °C 56.6 °F /  13.7 °C 29.86 in /  1011.1 hPa Calm     91 % 0.00 in /  0 mm
20:14 59.1 °F /  15.1 °C 56.2 °F /  13.4 °C 29.86 in /  1011.1 hPa ENE 0.1 mph /  0.2 km/h 1.2 mph /  1.9 km/h 90 % 0.00 in /  0 mm
20:20 59.0 °F /  15 °C 56.1 °F /  13.4 °C 29.85 in /  1010.7 hPa Calm     90 % 0.00 in /  0 mm
20:25 59.0 °F /  15 °C 56.4 °F /  13.6 °C 29.86 in /  1011.1 hPa Calm     91 % 0.00 in /  0 mm
20:30 59.0 °F /  15 °C 56.4 °F /  13.6 °C 29.85 in /  1010.7 hPa Calm     91 % 0.00 in /  0 mm
20:35 58.9 °F /  14.9 °C 56.3 °F /  13.5 °C 29.85 in /  1010.7 hPa Calm     91 % 0.00 in /  0 mm
20:40 58.9 °F /  14.9 °C 56.3 °F /  13.5 °C 29.85 in /  1010.7 hPa Calm   1.2 mph /  1.9 km/h 91 % 0.00 in /  0 mm
20:45 58.8 °F /  14.9 °C 56.2 °F /  13.4 °C 29.84 in /  1010.4 hPa SE 0.1 mph /  0.2 km/h 1.2 mph /  1.9 km/h 91 % 0.00 in /  0 mm
20:50 58.8 °F /  14.9 °C 56.2 °F /  13.4 °C 29.85 in /  1010.7 hPa Calm   1.2 mph /  1.9 km/h 91 % 0.00 in /  0 mm
21:00 58.7 °F /  14.8 °C 56.4 °F /  13.6 °C 29.85 in /  1010.7 hPa Calm     92 % 0.00 in /  0 mm
21:05 58.6 °F /  14.8 °C 56.3 °F /  13.5 °C 29.85 in /  1010.7 hPa Calm     92 % 0.00 in /  0 mm
21:10 58.6 °F /  14.8 °C 56.3 °F /  13.5 °C 29.85 in /  1010.7 hPa ESE 1.0 mph /  1.6 km/h 2.3 mph /  3.7 km/h 92 % 0.00 in /  0 mm
21:15 58.5 °F /  14.7 °C 56.2 °F /  13.4 °C 29.85 in /  1010.7 hPa Calm     92 % 0.00 in /  0 mm
21:20 58.5 °F /  14.7 °C 56.2 °F /  13.4 °C 29.85 in /  1010.7 hPa Calm     92 % 0.00 in /  0 mm
21:25 58.5 °F /  14.7 °C 56.2 °F /  13.4 °C 29.85 in /  1010.7 hPa Calm     92 % 0.00 in /  0 mm
21:30 58.4 °F /  14.7 °C 56.1 °F /  13.4 °C 29.85 in /  1010.7 hPa Calm     92 % 0.00 in /  0 mm
21:35 58.4 °F /  14.7 °C 56.1 °F /  13.4 °C 29.85 in /  1010.7 hPa Calm     92 % 0.00 in /  0 mm
21:40 58.4 °F /  14.7 °C 56.1 °F /  13.4 °C 29.85 in /  1010.7 hPa Calm     92 % 0.00 in /  0 mm
21:45 58.4 °F /  14.7 °C 56.1 °F /  13.4 °C 29.85 in /  1010.7 hPa Calm     92 % 0.00 in /  0 mm
21:51 58.3 °F /  14.6 °C 56.0 °F /  13.3 °C 29.85 in /  1010.7 hPa Calm     92 % 0.00 in /  0 mm
21:56 58.3 °F /  14.6 °C 56.0 °F /  13.3 °C 29.85 in /  1010.7 hPa Calm     92 % 0.00 in /  0 mm
22:01 58.2 °F /  14.6 °C 55.9 °F /  13.3 °C 29.84 in /  1010.4 hPa Calm     92 % 0.00 in /  0 mm
22:06 58.2 °F /  14.6 °C 55.9 °F /  13.3 °C 29.84 in /  1010.4 hPa Calm     92 % 0.00 in /  0 mm
22:11 58.1 °F /  14.5 °C 55.8 °F /  13.2 °C 29.84 in /  1010.4 hPa Calm     92 % 0.00 in /  0 mm
22:16 58.0 °F /  14.4 °C 55.7 °F /  13.2 °C 29.84 in /  1010.4 hPa Calm     92 % 0.00 in /  0 mm
22:21 58.0 °F /  14.4 °C 55.7 °F /  13.2 °C 29.84 in /  1010.4 hPa Calm     92 % 0.00 in /  0 mm
22:26 58.0 °F /  14.4 °C 55.7 °F /  13.2 °C 29.84 in /  1010.4 hPa Calm     92 % 0.00 in /  0 mm
22:31 57.8 °F /  14.3 °C 55.5 °F /  13.1 °C 29.84 in /  1010.4 hPa Calm     92 % 0.00 in /  0 mm
22:36 57.8 °F /  14.3 °C 55.5 °F /  13.1 °C 29.84 in /  1010.4 hPa Calm     92 % 0.00 in /  0 mm
22:41 57.8 °F /  14.3 °C 55.5 °F /  13.1 °C 29.84 in /  1010.4 hPa Calm     92 % 0.00 in /  0 mm
22:46 57.8 °F /  14.3 °C 55.5 °F /  13.1 °C 29.84 in /  1010.4 hPa Calm     92 % 0.00 in /  0 mm
22:51 57.8 °F /  14.3 °C 55.8 °F /  13.2 °C 29.83 in /  1010 hPa Calm     93 % 0.00 in /  0 mm
22:56 57.7 °F /  14.3 °C 55.7 °F /  13.2 °C 29.83 in /  1010 hPa Calm     93 % 0.00 in /  0 mm
23:01 57.8 °F /  14.3 °C 55.8 °F /  13.2 °C 29.83 in /  1010 hPa Calm     93 % 0.00 in /  0 mm
23:06 57.8 °F /  14.3 °C 55.8 °F /  13.2 °C 29.82 in /  1009.7 hPa Calm     93 % 0.00 in /  0 mm
23:11 57.8 °F /  14.3 °C 55.8 °F /  13.2 °C 29.82 in /  1009.7 hPa Calm     93 % 0.00 in /  0 mm
23:16 57.8 °F /  14.3 °C 55.8 °F /  13.2 °C 29.81 in /  1009.4 hPa Calm     93 % 0.00 in /  0 mm
23:21 57.8 °F /  14.3 °C 55.8 °F /  13.2 °C 29.80 in /  1009 hPa ESE 0.1 mph /  0.2 km/h 2.3 mph /  3.7 km/h 93 % 0.00 in /  0 mm
23:26 57.8 °F /  14.3 °C 55.8 °F /  13.2 °C 29.80 in /  1009 hPa Calm   1.2 mph /  1.9 km/h 93 % 0.00 in /  0 mm
23:32 57.8 °F /  14.3 °C 55.8 °F /  13.2 °C 29.80 in /  1009 hPa ESE 0.2 mph /  0.3 km/h 1.0 mph /  1.6 km/h 93 % 0.00 in /  0 mm
23:37 57.7 °F /  14.3 °C 55.7 °F /  13.2 °C 29.81 in /  1009.4 hPa East 0.8 mph /  1.3 km/h 2.3 mph /  3.7 km/h 93 % 0.00 in /  0 mm
23:42 57.7 °F /  14.3 °C 55.7 °F /  13.2 °C 29.81 in /  1009.4 hPa Calm   3.5 mph /  5.6 km/h 93 % 0.00 in /  0 mm
23:47 57.6 °F /  14.2 °C 55.6 °F /  13.1 °C 29.81 in /  1009.4 hPa Calm   1.2 mph /  1.9 km/h 93 % 0.00 in /  0 mm
23:52 57.6 °F /  14.2 °C 55.6 °F /  13.1 °C 29.80 in /  1009 hPa Calm     93 % 0.00 in /  0 mm
23:57 57.6 °F /  14.2 °C 55.6 °F /  13.1 °C 29.80 in /  1009 hPa Calm   1.0 mph /  1.6 km/h 93 % 0.00 in /  0 mm
Crab Meadow Weather
Compliments of Weather Underground - 3 mb

Script developed by  Jim McMurry - jmcmurry@mwt.net Adapted for the template by  Wim van der Kuil - Leuven-Template.eu

Cloud Base: The cloud base is the distance from the sea level to the base of the clouds. It is estimated using the current temperature and humidity to indicate an altitude where the air could be cold enough for clouds to form. There may or may not be clouds at that altitude (or at any altitude)